Home   Weather   Brazzaville   Past weeks

Flag for Congo Past Weather in Brazzaville, Congo — Yesterday and Last 2 Weeks

Now
79 °F

Passing clouds.


Feels Like: 82 °F
Forecast: 71 / 82 °F
Wind: 6 mph from Northwest

Location: Brazzaville / Maya-Maya

Current Time: Jan 23, 2018 at 5:29:03 pm

Latest Report: Jan 23, 2018 at 4:00 pm


Visibility: N/A

Pressure: 29.80 "Hg

Humidity: 79%

Dew Point: 72 °F

Location of BrazzavilleLocation

Past Weather in Brazzaville — Graph

°F

Brazzaville Temperature Yesterday

Maximum temperature yesterday: 90 °F (at 3:00 pm)
Minimum temperature yesterday: 73 °F (at 5:00 am)
Average temperature yesterday: 81 °F

High & Low Weather Summary for the Past Weeks

 TemperatureHumidityPressure
High91 °F (Jan 17, 3:00 pm)100% (Jan 17, 4:00 am)30.01 "Hg (Jan 17, 4:00 am)
Low72 °F (Jan 13, 12:00 am)49% (Jan 17, 4:00 pm)29.74 "Hg (Jan 17, 4:00 pm)
Average78 °F80%29.90 "Hg
* Reported Jan 8 4:00 pm — Jan 23 4:00 pm, Brazzaville. Weather by CustomWeather, © 2018

Note: Actual official high and low records may vary slightly from our data, if they occured in-between our weather recording intervals... More about our weather records

Advertising

Brazzaville Weather History for the Previous 24 Hours

Scroll right to see more
 ConditionsComfort  
Time TempWeatherWind HumidityBarometerVisibility
4:00 pm
Tue, Jan 23
77 °FPassing clouds.5 mph79%29.80 "HgN/A
3:00 pm77 °FPassing clouds.5 mph79%29.80 "HgN/A
2:00 pm75 °FPassing clouds.6 mph83%29.83 "HgN/A
1:00 pm75 °FPassing clouds.6 mph83%29.86 "HgN/A
12:00 pm75 °FPassing clouds.6 mph78%29.89 "HgN/A
11:00 am73 °FPassing clouds.1 mph83%29.95 "Hg5 mi
10:00 am73 °FPassing clouds.7 mph83%29.98 "Hg5 mi
9:00 am73 °FLight rain. Passing clouds.9 mph89%29.98 "Hg5 mi
8:00 am72 °FPassing clouds.5 mph94%29.95 "Hg5 mi
7:00 am72 °FLight rain. Passing clouds.No wind88%29.95 "HgN/A
6:26 am72 °FLight rain. Passing clouds.2 mph88%29.92 "HgN/A
6:00 am72 °FThunderstorms. Passing clouds.3 mph94%29.92 "HgN/A
5:00 am72 °FThunderstorms. Passing clouds.6 mph94%29.89 "Hg5 mi
4:00 am73 °FThunderstorms. Passing clouds.8 mph89%29.89 "Hg5 mi
3:00 am75 °FThunderstorms. Passing clouds.8 mph78%29.89 "Hg5 mi
2:00 am75 °FThunderstorms. Passing clouds.6 mph78%29.89 "Hg5 mi
1:00 am77 °FPassing clouds.9 mph74%29.89 "Hg5 mi
12:00 am77 °FPassing clouds.6 mph74%29.89 "Hg5 mi
11:00 pm
Mon, Jan 22
79 °FPassing clouds.8 mph70%29.89 "Hg5 mi
10:00 pm79 °FPassing clouds.6 mph74%29.89 "Hg5 mi
9:53 pm79 °FPassing clouds.7 mph74%29.89 "Hg5 mi
9:00 pm82 °FThunderstorms. Passing clouds.5 mph70%29.86 "Hg5 mi
8:00 pm84 °FThunderstorms. Passing clouds.1 mph70%29.83 "Hg6 mi
7:00 pm84 °FPassing clouds.2 mph66%29.80 "HgN/A
6:00 pm84 °FScattered clouds.5 mph66%29.77 "HgN/A
5:00 pm90 °FScattered clouds.3 mph55%29.74 "HgN/A
Weather by CustomWeather, © 2018

See weather overview